SXS4GQ LTBJ-EGBB

Flight info

Callsign SXS4GQ
Flight time N/A
Altitude 32000
Route VEXOL UY134 NEMIS UL608 GIKAS/N0460F360 DCT FSK UL608 DISOR DCT SKJ DCT LONTA UL608 DOLEV DCT MITNO DCT LURID DCT BEDOX DCT RADLY DCT SIMBA DCT MAMOR DCT INBED/N0455F380 DCT BOMBI DCT ADKUV DCT LENDO DCT SOGRI DCT DENUT L610 HEMEL
Aircraft B38M/M-SADE2E3GIJ4J7RW/LB1D1

Departure

Time 2026-05-04 19:44
Airport Adnan Menderes International Airport (LTBJ)

Arrival

Time N/A
Airport Birmingham Airport (EGBB)
Time Latitude Longitude Altitude Speed Heading
2026-05-04 19:13 38.29581 27.14976 402 ft 0 kts 256°
2026-05-04 19:33 38.29581 27.14979 402 ft 2 kts 256°
2026-05-04 19:33 38.29585 27.14999 402 ft 2 kts 256°
2026-05-04 19:33 38.29588 27.15013 402 ft 2 kts 256°
2026-05-04 19:34 38.29596 27.15033 402 ft 2 kts 221°
2026-05-04 19:34 38.29611 27.15044 402 ft 2 kts 194°
2026-05-04 19:34 38.29627 27.15045 402 ft 0 kts 169°
2026-05-04 19:34 38.29634 27.15043 403 ft 0 kts 166°
2026-05-04 19:36 38.29633 27.15043 403 ft 0 kts 166°
2026-05-04 19:37 38.29617 27.15048 402 ft 3 kts 166°
2026-05-04 19:37 38.29570 27.15063 401 ft 9 kts 166°
2026-05-04 19:37 38.29491 27.15086 400 ft 11 kts 167°
2026-05-04 19:37 38.29417 27.15108 400 ft 9 kts 167°
2026-05-04 19:38 38.29350 27.15128 400 ft 8 kts 167°
2026-05-04 19:38 38.29290 27.15146 401 ft 8 kts 166°
2026-05-04 19:38 38.29226 27.15165 402 ft 9 kts 167°
2026-05-04 19:38 38.29156 27.15186 403 ft 9 kts 166°
2026-05-04 19:39 38.29077 27.15211 403 ft 11 kts 166°
2026-05-04 19:39 38.29013 27.15250 403 ft 6 kts 108°
2026-05-04 19:39 38.28979 27.15302 403 ft 8 kts 153°
2026-05-04 19:39 38.28912 27.15327 403 ft 9 kts 166°
2026-05-04 19:40 38.28833 27.15350 403 ft 11 kts 167°
2026-05-04 19:40 38.28733 27.15381 402 ft 14 kts 166°
2026-05-04 19:40 38.28612 27.15417 402 ft 16 kts 167°
2026-05-04 19:40 38.28489 27.15454 400 ft 16 kts 166°
2026-05-04 19:41 38.28366 27.15490 397 ft 16 kts 166°
2026-05-04 19:41 38.28241 27.15528 393 ft 17 kts 167°
2026-05-04 19:41 38.28107 27.15568 388 ft 19 kts 166°
2026-05-04 19:41 38.27964 27.15612 384 ft 17 kts 166°
2026-05-04 19:42 38.27866 27.15642 381 ft 11 kts 166°
2026-05-04 19:42 38.27774 27.15671 378 ft 12 kts 155°
2026-05-04 19:42 38.27766 27.15775 377 ft 11 kts 73°
2026-05-04 19:42 38.27786 27.15880 376 ft 9 kts 77°
2026-05-04 19:43 38.27808 27.15938 376 ft 3 kts 343°
2026-05-04 19:43 38.27815 27.15933 377 ft 1 kts 330°
2026-05-04 19:43 38.27834 27.15917 377 ft 4 kts 327°
2026-05-04 19:43 38.27951 27.15867 382 ft 46 kts 346°
2026-05-04 19:44 38.28512 27.15698 397 ft 114 kts 347°
2026-05-04 19:44 38.29511 27.15397 410 ft 169 kts 346°
2026-05-04 19:44 38.30769 27.15027 1217 ft 168 kts 346°
2026-05-04 19:44 38.32025 27.14650 2077 ft 173 kts 346°
2026-05-04 19:45 38.33367 27.14279 2829 ft 185 kts 348°
2026-05-04 19:45 38.34813 27.13896 3538 ft 202 kts 348°
2026-05-04 19:45 38.36359 27.13460 4333 ft 216 kts 346°
2026-05-04 19:45 38.37898 27.12490 5172 ft 235 kts 320°
2026-05-04 19:46 38.38863 27.10541 6009 ft 258 kts 292°
2026-05-04 19:46 38.39075 27.07929 6835 ft 281 kts 274°
2026-05-04 19:46 38.38939 27.05176 7857 ft 285 kts 272°
2026-05-04 19:46 38.38787 27.02469 8812 ft 288 kts 273°
2026-05-04 19:47 38.38650 26.99705 9754 ft 291 kts 274°
2026-05-04 19:47 38.38520 26.96816 10558 ft 299 kts 274°
2026-05-04 19:47 38.38408 26.94111 11082 ft 313 kts 274°
2026-05-04 19:47 38.38279 26.91019 11611 ft 328 kts 273°
2026-05-04 19:48 38.38141 26.87872 12145 ft 341 kts 273°
2026-05-04 19:48 38.37989 26.84487 12596 ft 357 kts 273°
2026-05-04 19:48 38.37839 26.81183 12975 ft 371 kts 272°
2026-05-04 19:48 38.37682 26.77726 13310 ft 385 kts 272°
2026-05-04 19:49 38.37509 26.73975 13643 ft 398 kts 272°
2026-05-04 19:49 38.37340 26.70397 14146 ft 404 kts 272°
2026-05-04 19:49 38.37155 26.66511 14742 ft 408 kts 272°
2026-05-04 19:49 38.36974 26.62747 15321 ft 412 kts 272°
2026-05-04 19:50 38.36793 26.58972 15847 ft 417 kts 272°
2026-05-04 19:50 38.36603 26.55007 16424 ft 420 kts 272°
2026-05-04 19:50 38.36426 26.51315 16875 ft 425 kts 272°
2026-05-04 19:50 38.36238 26.47403 17458 ft 426 kts 272°
2026-05-04 19:51 38.36051 26.43556 17929 ft 430 kts 272°
2026-05-04 19:51 38.35863 26.39709 18334 ft 435 kts 272°
2026-05-04 19:51 38.35656 26.35477 18797 ft 440 kts 272°
2026-05-04 19:51 38.35458 26.31468 19255 ft 443 kts 271°
2026-05-04 19:52 38.35253 26.27371 19689 ft 447 kts 271°
2026-05-04 19:52 38.35054 26.23432 20113 ft 450 kts 271°
2026-05-04 19:52 38.34859 26.19433 20545 ft 452 kts 271°
2026-05-04 19:52 38.34766 26.15230 20947 ft 455 kts 274°
2026-05-04 19:53 38.34837 26.11005 21322 ft 456 kts 277°
2026-05-04 19:53 38.35080 26.06964 21746 ft 457 kts 279°
2026-05-04 19:53 38.35414 26.02834 22067 ft 461 kts 280°
2026-05-04 19:53 38.35769 25.98733 22483 ft 463 kts 280°
2026-05-04 19:54 38.36120 25.94634 22804 ft 467 kts 280°
2026-05-04 19:54 38.36456 25.90500 23196 ft 469 kts 280°
2026-05-04 19:54 38.36780 25.86330 23548 ft 472 kts 280°
2026-05-04 19:54 38.37255 25.82184 23877 ft 472 kts 286°
2026-05-04 19:55 38.38127 25.78118 24270 ft 470 kts 292°
2026-05-04 19:55 38.39377 25.74279 24622 ft 468 kts 301°
2026-05-04 19:55 38.41092 25.70728 25028 ft 464 kts 310°
2026-05-04 19:55 38.43229 25.67590 25349 ft 463 kts 319°
2026-05-04 19:56 38.45741 25.64950 25831 ft 458 kts 328°
2026-05-04 19:56 38.48395 25.62727 26344 ft 455 kts 331°
2026-05-04 19:56 38.51132 25.60574 26759 ft 455 kts 331°
2026-05-04 19:56 38.53811 25.58444 27239 ft 454 kts 330°
2026-05-04 19:57 38.56475 25.56235 27676 ft 454 kts 329°
2026-05-04 19:57 38.59175 25.53898 28113 ft 454 kts 328°
2026-05-04 19:57 38.61793 25.51551 28508 ft 454 kts 327°
2026-05-04 19:57 38.64466 25.49089 28952 ft 454 kts 327°
2026-05-04 19:58 38.67085 25.46628 29378 ft 453 kts 326°
2026-05-04 19:58 38.69658 25.44177 29734 ft 454 kts 326°
2026-05-04 19:58 38.72284 25.41652 30121 ft 454 kts 326°
2026-05-04 19:58 38.74858 25.39156 30593 ft 451 kts 325°
2026-05-04 19:59 38.77410 25.36672 31044 ft 449 kts 325°
2026-05-04 19:59 38.79961 25.34183 31410 ft 448 kts 324°
2026-05-04 19:59 38.82478 25.31723 31796 ft 447 kts 324°
2026-05-04 19:59 38.84989 25.29263 32204 ft 445 kts 324°
2026-05-04 20:00 38.87519 25.26782 32619 ft 443 kts 324°
2026-05-04 20:00 38.90023 25.24323 33006 ft 441 kts 324°
2026-05-04 20:00 38.92511 25.21877 33333 ft 440 kts 324°
2026-05-04 20:00 38.94980 25.19448 33683 ft 439 kts 324°
2026-05-04 20:01 38.97378 25.17086 34013 ft 437 kts 324°
2026-05-04 20:01 38.99844 25.14658 34350 ft 436 kts 324°
2026-05-04 20:01 39.02247 25.12289 34647 ft 435 kts 324°
2026-05-04 20:01 39.04656 25.09911 34937 ft 432 kts 324°
2026-05-04 20:02 39.07068 25.07527 35174 ft 431 kts 324°
2026-05-04 20:02 39.09451 25.05169 35364 ft 430 kts 324°
2026-05-04 20:02 39.11861 25.02784 35522 ft 431 kts 323°
2026-05-04 20:02 39.14269 25.00400 35684 ft 431 kts 323°
2026-05-04 20:03 39.16665 24.98025 35845 ft 431 kts 324°
2026-05-04 20:03 39.19060 24.95647 36021 ft 430 kts 323°
2026-05-04 20:03 39.21455 24.93269 36059 ft 432 kts 323°
2026-05-04 20:04 39.26254 24.88495 36099 ft 429 kts 323°
2026-05-04 20:04 39.31089 24.83675 36093 ft 429 kts 323°
2026-05-04 20:05 39.35867 24.78906 36097 ft 428 kts 323°
2026-05-04 20:05 39.40655 24.74119 36104 ft 428 kts 323°
2026-05-04 20:06 39.45370 24.69396 36100 ft 428 kts 323°
2026-05-04 20:06 39.50125 24.64627 36103 ft 429 kts 323°
2026-05-04 20:07 39.54930 24.59798 36099 ft 429 kts 323°
2026-05-04 20:07 39.59749 24.54945 36093 ft 430 kts 323°
2026-05-04 20:08 39.64538 24.50112 36095 ft 430 kts 324°
2026-05-04 20:08 39.69331 24.45267 36091 ft 429 kts 323°
2026-05-04 20:09 39.74108 24.40428 36092 ft 429 kts 323°
2026-05-04 20:09 39.78830 24.35639 36089 ft 430 kts 323°
2026-05-04 20:10 39.83624 24.30767 36089 ft 431 kts 323°
2026-05-04 20:10 39.88387 24.25919 36089 ft 430 kts 323°
2026-05-04 20:11 39.93153 24.21060 36094 ft 430 kts 323°
2026-05-04 20:11 39.97869 24.16244 36085 ft 431 kts 323°
2026-05-04 20:12 40.02576 24.11428 36093 ft 431 kts 323°
2026-05-04 20:12 40.07291 24.06593 36094 ft 430 kts 323°
2026-05-04 20:13 40.12003 24.01750 36091 ft 430 kts 323°
2026-05-04 20:13 40.16698 23.96920 36086 ft 430 kts 323°
2026-05-04 20:14 40.21394 23.92079 36092 ft 430 kts 323°
2026-05-04 20:14 40.26515 23.86789 36091 ft 430 kts 323°
2026-05-04 20:15 40.31681 23.81442 36086 ft 431 kts 323°
2026-05-04 20:15 40.36940 23.75989 36085 ft 430 kts 323°
2026-05-04 20:16 40.42075 23.70655 36086 ft 431 kts 323°
2026-05-04 20:16 40.47276 23.65239 36089 ft 430 kts 323°
2026-05-04 20:17 40.52467 23.59820 36090 ft 431 kts 323°
2026-05-04 20:17 40.57635 23.54413 36088 ft 430 kts 323°
2026-05-04 20:18 40.62794 23.49015 36099 ft 431 kts 323°
2026-05-04 20:18 40.67919 23.43637 36098 ft 431 kts 323°
2026-05-04 20:19 40.73109 23.38182 36097 ft 431 kts 323°
2026-05-04 20:19 40.78253 23.32759 36103 ft 432 kts 322°
2026-05-04 20:20 40.83441 23.27277 36108 ft 432 kts 322°
2026-05-04 20:20 40.88633 23.21781 36112 ft 432 kts 322°
2026-05-04 20:21 40.93807 23.16295 36101 ft 433 kts 322°
2026-05-04 20:21 41.01294 23.08336 36103 ft 434 kts 322°
2026-05-04 20:22 41.06206 23.03097 36110 ft 434 kts 322°
2026-05-04 20:22 41.10997 22.97308 36101 ft 434 kts 314°
2026-05-04 20:23 41.15299 22.90851 36109 ft 435 kts 311°
2026-05-04 20:23 41.19400 22.84359 36115 ft 433 kts 311°
2026-05-04 20:24 41.23537 22.77791 36108 ft 431 kts 311°
2026-05-04 20:24 41.27694 22.71165 36115 ft 432 kts 311°
2026-05-04 20:25 41.31847 22.64437 36111 ft 430 kts 311°
2026-05-04 20:25 41.35941 22.57785 36115 ft 431 kts 311°
2026-05-04 20:26 41.39979 22.51231 36113 ft 429 kts 311°
2026-05-04 20:26 41.43995 22.44705 36116 ft 430 kts 311°
2026-05-04 20:27 41.48086 22.38040 36110 ft 429 kts 311°
2026-05-04 20:27 41.52192 22.31347 36137 ft 429 kts 311°
2026-05-04 20:28 41.56285 22.24653 36117 ft 426 kts 311°
2026-05-04 20:28 41.60350 22.17990 36122 ft 428 kts 311°
2026-05-04 20:29 41.64426 22.11296 36137 ft 426 kts 311°
2026-05-04 20:29 41.68497 22.04595 36142 ft 427 kts 311°
2026-05-04 20:30 41.72499 21.97991 36137 ft 425 kts 311°
2026-05-04 20:30 41.76481 21.91410 36136 ft 427 kts 311°
2026-05-04 20:31 41.80452 21.84832 36135 ft 426 kts 311°
2026-05-04 20:31 41.84412 21.78256 36137 ft 427 kts 311°
2026-05-04 20:32 41.88366 21.71676 36138 ft 425 kts 311°
2026-05-04 20:32 41.92388 21.65103 36128 ft 425 kts 314°
2026-05-04 20:33 41.96920 21.59329 36133 ft 423 kts 323°
2026-05-04 20:33 42.01881 21.54162 36133 ft 422 kts 324°
2026-05-04 20:34 42.06833 21.49139 36135 ft 422 kts 324°
2026-05-04 20:34 42.11719 21.44120 36133 ft 422 kts 324°
2026-05-04 20:35 42.16417 21.38762 36138 ft 424 kts 317°
2026-05-04 20:35 42.20652 21.32506 36148 ft 425 kts 313°
2026-05-04 20:36 42.24691 21.26035 36146 ft 425 kts 312°
2026-05-04 20:36 42.28722 21.19544 36148 ft 425 kts 312°
2026-05-04 20:37 42.32765 21.13070 36147 ft 425 kts 312°
2026-05-04 20:37 42.36793 21.06627 36141 ft 425 kts 312°
2026-05-04 20:38 42.40809 21.00197 36138 ft 424 kts 312°
2026-05-04 20:38 42.44822 20.93761 36140 ft 424 kts 312°
2026-05-04 20:39 42.48864 20.87262 36144 ft 424 kts 312°
2026-05-04 20:39 42.52917 20.80735 36160 ft 424 kts 312°
2026-05-04 20:40 42.56924 20.74270 36167 ft 424 kts 312°
2026-05-04 20:40 42.60934 20.67782 36166 ft 424 kts 312°
2026-05-04 20:41 42.64931 20.61301 36172 ft 423 kts 312°
2026-05-04 20:41 42.68901 20.54847 36170 ft 423 kts 312°
2026-05-04 20:42 42.72918 20.48303 36174 ft 424 kts 312°
2026-05-04 20:42 42.76915 20.41781 36177 ft 424 kts 312°
2026-05-04 20:43 42.80924 20.35232 36189 ft 423 kts 313°
2026-05-04 20:43 42.85195 20.29126 36198 ft 422 kts 319°
2026-05-04 20:44 42.89951 20.23636 36203 ft 422 kts 322°
2026-05-04 20:44 42.94796 20.18300 36192 ft 421 kts 322°
2026-05-04 20:45 42.99625 20.12951 36178 ft 421 kts 322°
2026-05-04 20:45 43.04382 20.07634 36175 ft 422 kts 322°
2026-05-04 20:46 43.09184 20.02235 36176 ft 422 kts 322°
2026-05-04 20:46 43.14010 19.96790 36176 ft 423 kts 321°
2026-05-04 20:47 43.18870 19.91292 36175 ft 422 kts 321°
2026-05-04 20:47 43.23642 19.85881 36170 ft 423 kts 321°
2026-05-04 20:48 43.28451 19.80415 36172 ft 423 kts 321°
2026-05-04 20:48 43.33280 19.74915 36174 ft 423 kts 321°
2026-05-04 20:49 43.38048 19.69474 36171 ft 424 kts 321°
2026-05-04 20:49 43.42804 19.64035 36170 ft 423 kts 321°
2026-05-04 20:50 43.47575 19.58568 36167 ft 423 kts 321°
2026-05-04 20:50 43.52314 19.53126 36162 ft 424 kts 321°
2026-05-04 20:51 43.57076 19.47646 36155 ft 425 kts 321°
2026-05-04 20:51 43.61829 19.42165 36150 ft 424 kts 321°
2026-05-04 20:52 43.66556 19.36701 36147 ft 425 kts 321°
2026-05-04 20:52 43.71321 19.31183 36146 ft 425 kts 320°
2026-05-04 20:53 43.76070 19.25671 36143 ft 425 kts 320°
2026-05-04 20:53 43.80792 19.19935 36138 ft 426 kts 317°
2026-05-04 20:54 43.85250 19.14027 36140 ft 426 kts 317°
2026-05-04 20:54 43.89782 19.07958 36137 ft 427 kts 317°
2026-05-04 20:55 43.94375 19.01853 36127 ft 426 kts 317°
2026-05-04 20:55 43.98994 18.95737 36126 ft 426 kts 317°
2026-05-04 20:56 44.03508 18.89759 36122 ft 426 kts 317°
2026-05-04 20:56 44.08144 18.83608 36127 ft 425 kts 317°
2026-05-04 20:57 44.12766 18.77465 36131 ft 426 kts 317°
2026-05-04 20:57 44.17378 18.71322 36120 ft 429 kts 317°
2026-05-04 20:58 44.22040 18.65097 36114 ft 427 kts 317°
2026-05-04 20:58 44.26744 18.58802 36111 ft 427 kts 317°
2026-05-04 20:59 44.31387 18.52572 36104 ft 428 kts 317°
2026-05-04 20:59 44.36124 18.46202 36106 ft 427 kts 317°
2026-05-04 21:00 44.40860 18.39821 36107 ft 429 kts 317°
2026-05-04 21:00 44.45538 18.33503 36110 ft 429 kts 316°
2026-05-04 21:01 44.50307 18.27044 36097 ft 429 kts 316°
2026-05-04 21:01 44.55022 18.20642 36099 ft 429 kts 316°
2026-05-04 21:02 44.59663 18.14329 36085 ft 430 kts 316°